TimeMST,TemperatureF,Dew PointF,Humidity,Sea Level PressureIn,VisibilityMPH,Wind Direction,Wind SpeedMPH,Gust SpeedMPH,PrecipitationIn,Events,Conditions,WindDirDegrees,DateUTC
12:15 AM,17.6,12.2,79,29.68,10.0,SSW,5.8,-,N/A,,Clear,200,2013-12-21 07:15:00
12:35 AM,14.0,10.4,86,29.67,10.0,SW,5.8,-,N/A,,Clear,230,2013-12-21 07:35:00
12:55 AM,15.8,12.2,86,29.65,10.0,West,9.2,-,N/A,,Clear,270,2013-12-21 07:55:00
1:15 AM,15.8,12.2,86,29.65,10.0,West,6.9,-,N/A,,Clear,270,2013-12-21 08:15:00
1:35 AM,17.6,12.2,79,29.63,10.0,West,6.9,-,N/A,,Clear,280,2013-12-21 08:35:00
1:55 AM,14.0,10.4,86,29.63,10.0,West,6.9,-,N/A,,Clear,260,2013-12-21 08:55:00
2:15 AM,14.0,10.4,86,29.65,10.0,West,6.9,-,N/A,,Clear,260,2013-12-21 09:15:00
2:35 AM,14.0,10.4,86,29.65,10.0,West,8.1,-,N/A,,Clear,260,2013-12-21 09:35:00
2:55 AM,14.0,10.4,86,29.64,10.0,WSW,6.9,-,N/A,,Clear,250,2013-12-21 09:55:00
3:15 AM,14.0,10.4,86,29.64,10.0,West,6.9,-,N/A,,Clear,260,2013-12-21 10:15:00
3:35 AM,14.0,10.4,86,29.63,10.0,West,6.9,-,N/A,,Clear,270,2013-12-21 10:35:00
3:55 AM,14.0,10.4,86,29.61,10.0,West,9.2,-,N/A,,Clear,280,2013-12-21 10:55:00
4:15 AM,14.0,10.4,86,29.61,10.0,West,8.1,-,N/A,,Clear,270,2013-12-21 11:15:00
4:35 AM,14.0,10.4,86,29.61,10.0,West,6.9,-,N/A,,Clear,280,2013-12-21 11:35:00
4:55 AM,12.2,8.6,85,29.62,10.0,West,6.9,-,N/A,,Clear,280,2013-12-21 11:55:00
5:15 AM,14.0,10.4,86,29.62,10.0,West,5.8,-,N/A,,Clear,280,2013-12-21 12:15:00
5:35 AM,14.0,10.4,86,29.62,10.0,WNW,6.9,-,N/A,,Clear,290,2013-12-21 12:35:00
5:55 AM,14.0,10.4,86,29.62,10.0,West,9.2,-,N/A,,Clear,280,2013-12-21 12:55:00
6:15 AM,14.0,10.4,86,29.63,10.0,West,8.1,-,N/A,,Clear,280,2013-12-21 13:15:00
6:35 AM,12.2,8.6,85,29.65,10.0,West,8.1,-,N/A,,Clear,270,2013-12-21 13:35:00
6:55 AM,14.0,10.4,86,29.65,10.0,WNW,6.9,-,N/A,,Clear,290,2013-12-21 13:55:00
7:15 AM,14.0,10.4,86,29.63,7.0,NW,5.8,-,N/A,,Clear,310,2013-12-21 14:15:00
7:35 AM,17.6,14.0,86,29.63,7.0,NW,6.9,-,N/A,,Clear,320,2013-12-21 14:35:00
7:55 AM,19.4,15.8,86,29.63,7.0,NW,5.8,-,N/A,,Clear,320,2013-12-21 14:55:00
8:15 AM,21.2,17.6,86,29.63,7.0,NNW,6.9,-,N/A,,Clear,330,2013-12-21 15:15:00
8:35 AM,24.8,19.4,80,29.63,7.0,NW,8.1,-,N/A,,Clear,320,2013-12-21 15:35:00
8:55 AM,28.4,23.0,80,29.63,7.0,NNW,6.9,-,N/A,,Clear,330,2013-12-21 15:55:00
9:15 AM,32.0,24.8,75,29.65,10.0,Calm,Calm,-,N/A,,Clear,0,2013-12-21 16:15:00
9:35 AM,33.8,26.6,75,29.66,10.0,NNW,3.5,-,N/A,,Clear,330,2013-12-21 16:35:00
9:55 AM,33.8,23.0,65,29.67,10.0,Calm,Calm,-,N/A,,Clear,0,2013-12-21 16:55:00
10:15 AM,35.6,21.2,56,29.67,10.0,East,6.9,-,N/A,,Clear,80,2013-12-21 17:15:00
10:35 AM,37.4,21.2,52,29.66,10.0,ENE,8.1,-,N/A,,Clear,70,2013-12-21 17:35:00
10:55 AM,37.4,19.4,48,29.65,10.0,East,6.9,-,N/A,,Clear,90,2013-12-21 17:55:00
11:15 AM,37.4,17.6,45,29.63,10.0,ENE,5.8,-,N/A,,Clear,60,2013-12-21 18:15:00
11:35 AM,39.2,17.6,42,29.63,10.0,North,9.2,-,N/A,,Clear,360,2013-12-21 18:35:00
11:55 AM,41.0,17.6,39,29.63,10.0,North,8.1,-,N/A,,Clear,360,2013-12-21 18:55:00
12:15 PM,41.0,17.6,39,29.63,10.0,North,8.1,-,N/A,,Clear,10,2013-12-21 19:15:00
12:35 PM,41.0,17.6,39,29.63,10.0,North,9.2,-,N/A,,Clear,350,2013-12-21 19:35:00
12:55 PM,37.4,17.6,45,29.63,10.0,North,10.4,-,N/A,,Clear,10,2013-12-21 19:55:00
1:15 PM,37.4,14.0,38,29.63,10.0,NNE,10.4,-,N/A,,Clear,20,2013-12-21 20:15:00
1:35 PM,41.0,14.0,33,29.63,10.0,NE,8.1,-,N/A,,Clear,50,2013-12-21 20:35:00
1:55 PM,41.0,15.8,36,29.65,10.0,North,5.8,-,N/A,,Clear,10,2013-12-21 20:55:00
2:15 PM,41.0,17.6,39,29.65,10.0,NE,5.8,-,N/A,,Scattered Clouds,40,2013-12-21 21:15:00
2:35 PM,39.2,17.6,42,29.66,10.0,NE,9.2,-,N/A,,Mostly Cloudy,50,2013-12-21 21:35:00
2:55 PM,37.4,19.4,48,29.67,10.0,ENE,6.9,-,N/A,,Overcast,60,2013-12-21 21:55:00
3:10 PM,37.4,19.4,48,29.68,10.0,ENE,4.6,-,N/A,,Overcast,70,2013-12-21 22:10:00
3:35 PM,37.4,19.4,48,29.68,10.0,NNE,6.9,-,N/A,,Overcast,30,2013-12-21 22:35:00
3:55 PM,35.6,26.6,70,29.70,3.0,North,9.2,-,N/A,Snow,Light Snow,360,2013-12-21 22:55:00
4:15 PM,33.8,30.2,87,29.69,7.0,North,6.9,-,N/A,Snow,Light Snow,10,2013-12-21 23:15:00
4:35 PM,33.8,30.2,87,29.70,10.0,North,6.9,-,N/A,,Mostly Cloudy,350,2013-12-21 23:35:00
4:55 PM,33.8,26.6,75,29.70,10.0,North,10.4,-,N/A,,Scattered Clouds,350,2013-12-21 23:55:00
5:15 PM,33.8,28.4,81,29.71,10.0,North,8.1,-,N/A,,Clear,350,2013-12-22 00:15:00
5:35 PM,33.8,28.4,81,29.72,10.0,North,4.6,-,N/A,,Mostly Cloudy,350,2013-12-22 00:35:00
5:55 PM,33.8,28.4,81,29.72,10.0,NNW,5.8,-,N/A,,Overcast,330,2013-12-22 00:55:00
6:15 PM,33.8,28.4,81,29.72,10.0,NNW,8.1,-,N/A,,Overcast,330,2013-12-22 01:15:00
6:35 PM,33.8,26.6,75,29.73,10.0,NNW,13.8,-,N/A,,Overcast,330,2013-12-22 01:35:00
6:55 PM,33.8,24.8,70,29.74,10.0,NNW,15.0,-,N/A,,Overcast,330,2013-12-22 01:55:00
7:15 PM,33.8,23.0,65,29.76,10.0,NNW,13.8,-,N/A,,Overcast,330,2013-12-22 02:15:00
7:35 PM,33.8,23.0,65,29.76,10.0,NNW,19.6,23.0,N/A,,Overcast,340,2013-12-22 02:35:00
7:55 PM,32.0,21.2,64,29.77,10.0,NNW,20.7,26.5,N/A,,Overcast,330,2013-12-22 02:55:00
8:15 PM,30.2,19.4,64,29.79,10.0,NNW,23.0,27.6,N/A,,Mostly Cloudy,340,2013-12-22 03:15:00
8:35 PM,28.4,19.4,69,29.80,10.0,NNW,18.4,25.3,N/A,,Clear,340,2013-12-22 03:35:00
8:55 PM,26.6,19.4,74,29.80,10.0,North,17.3,-,N/A,,Scattered Clouds,350,2013-12-22 03:55:00
9:15 PM,26.6,19.4,74,29.82,10.0,North,13.8,19.6,N/A,,Scattered Clouds,350,2013-12-22 04:15:00
9:35 PM,24.8,19.4,80,29.84,10.0,North,15.0,-,N/A,,Clear,350,2013-12-22 04:35:00
9:55 PM,24.8,19.4,80,29.85,10.0,North,12.7,-,N/A,,Clear,360,2013-12-22 04:55:00
10:15 PM,23.0,17.6,80,29.86,10.0,North,9.2,-,N/A,,Clear,350,2013-12-22 05:15:00
10:35 PM,21.2,19.4,93,29.86,10.0,NNW,8.1,-,N/A,,Clear,340,2013-12-22 05:35:00
10:55 PM,21.2,17.6,86,29.87,10.0,NNW,6.9,-,N/A,,Clear,340,2013-12-22 05:55:00
11:15 PM,19.4,15.8,86,29.88,10.0,NNW,8.1,-,N/A,,Scattered Clouds,340,2013-12-22 06:15:00
11:35 PM,21.2,17.6,86,29.89,10.0,NNW,9.2,-,N/A,,Scattered Clouds,340,2013-12-22 06:35:00
11:55 PM,21.2,17.6,86,29.89,10.0,NNW,9.2,-,N/A,,Scattered Clouds,330,2013-12-22 06:55:00